Location: Unspecified
(0.0000°N, 0.0000°E)
Time: 20:42:08
(UTC+01:00)

TRAILBLAZER - Pass Details

Date: 05 December 2023
Orbit: 628 x 632 km, 64.6° (Epoch: 23 February)

Event Time Altitude Azimuth Distance (km) Brightness Sun altitude
Exits shadow 05:35:00 13° 235° (SW) 1,790 6.6 -17.4°
Drops below altitude 10° 05:36:30 10° 216° (SW) 2,002 7.0 -17.0°
Sets 05:39:50 0° 190° (S) 2,912 8.2 -16.3°
